1998-067HX

Last updated on Thu May 19 2016 07:36:27 GMT+0000 (Coordinated Universal Time)

1 41477U 98067HX 16140.16747728 .00023634 00000-0 34620-3 0 9993 2 41477 51.6425 202.7836 0003014 15.8698 90.6695 15.55441423 325

Satellite not in orbit